Zurück zum Katalog

CZ-6A DEB

AktivSSO
NORAD 55520·DEBRIS·🇨🇳 China

Gestartet Nov 11, 2022 von Taiyuan Satellite Launch Center

Loading…

Nächste Überflüge (nächste 24 Stunden)

TLE

AktuellSource: Space-Track

Epoche: Sep 14, 2026, 13:54 UTC

1 55520U 22151XS  26257.57964592  .00001492  00000-0  61778-3 0  9995
2 55520  98.9007 305.0833 0068723 286.8668  72.4983 14.26916536194105

Verfolge CZ-6A DEB in Echtzeit mit AllMySat

Download on the App Store